Thunderstorms From: 21-05-2018 15:00 Until: 22-05-2018 15:00 warning for: Thunderstorms Level: Yellow info button

Although rather usual in this region, locally or potentially dangerous phenomena are expected. (such as local winds, summer thunderstorms, rising streams or high waves) Be aware and pay attention to the latest weather updates, especially if you carry out activities exposed to weather or close to a stream or shoreline. 


Meteo18 Weather Cam more information Meteo18 Weather Cam


warning for Thunderstorms more information blitzortung!


Rain radar more information rain snow radar


Visit our other weather sites:

Template documentation
and downloads

And another site



Weather Underground History page Text

Daily Summary for April 28, 2017 Units:  English    Metric   Both
« Previous Day
Next Day »
Daily Weekly Monthly Yearly Custom
  High: Low: Average:
Temperature: TemperatureC °F 1.4 °F 6.9 °F
Dew Point: DewpointC °F -1.5 °F 1.8 °F
Humidity: Humidity % 56 % 70 %
Wind Speed: WindSpeedKMH mph 0.0 mph 3 mph
Wind Gust: WindSpeedGustKMH mph - -
Wind:- - West
Pressure: PressurehPa in 1017.8 in -
Precipitation: 0.0 in    
Historical Graphs
 
 
Tabular Data for April 28, 2017
Time Temperature Dew Point Pressure Wind Wind Speed Wind Gust Humidity Rainfall Rate (Hourly)
TemperatureC °F DewpointC °F PressurehPa in Calm     Humidity % HourlyPrecipMM in
00:02 4.2 °F 0.3 °F 1018.5 in WNW 9.7 mph 11.3 mph 76 % 0.0 in
00:12 4.1 °F 0.3 °F 1018.5 in WNW 3.2 mph 12.9 mph 76 % 0.0 in
00:17 4.0 °F 0.2 °F 1018.8 in WNW 6.4 mph 12.9 mph 76 % 0.0 in
00:22 3.9 °F 0.2 °F 1018.8 in WNW 8.0 mph 12.9 mph 77 % 0.0 in
00:32 3.9 °F 0.1 °F 1018.5 in WNW 3.2 mph 12.9 mph 76 % 0.0 in
00:42 3.8 °F 0.1 °F 1018.5 in North 3.2 mph 12.9 mph 77 % 0.0 in
00:52 3.8 °F 0.1 °F 1018.5 in NW 4.8 mph 12.9 mph 77 % 0.0 in
00:57 3.7 °F 0.0 °F 1018.8 in West 1.6 mph 11.3 mph 77 % 0.0 in
01:02 3.7 °F 0.0 °F 1018.8 in WNW 4.8 mph 11.3 mph 77 % 0.0 in
01:12 3.6 °F -0.1 °F 1018.8 in NW 4.8 mph 11.3 mph 77 % 0.0 in
01:17 3.6 °F -0.1 °F 1018.8 in NNW 4.8 mph 8.0 mph 77 % 0.0 in
01:22 3.6 °F -0.1 °F 1018.8 in NNW 4.8 mph 9.7 mph 77 % 0.0 in
01:32 3.3 °F -0.3 °F 1018.8 in WNW 3.2 mph 9.7 mph 77 % 0.0 in
01:42 3.0 °F -0.3 °F 1018.8 in Calm   8.0 mph 79 % 0.0 in
01:47 3.1 °F -0.4 °F 1018.8 in Calm   4.8 mph 78 % 0.0 in
01:52 3.1 °F -0.4 °F 1018.5 in WNW 1.6 mph 4.8 mph 78 % 0.0 in
01:57 3.2 °F -0.3 °F 1018.5 in NW 3.2 mph 3.2 mph 78 % 0.0 in
02:02 3.3 °F -0.2 °F 1018.5 in NNW 3.2 mph 4.8 mph 78 % 0.0 in
02:07 3.4 °F -0.2 °F 1018.5 in NW 4.8 mph 6.4 mph 77 % 0.0 in
02:12 3.6 °F -0.1 °F 1018.5 in WNW 1.6 mph 6.4 mph 77 % 0.0 in
02:17 3.7 °F 0.0 °F 1018.5 in NW 3.2 mph 9.7 mph 77 % 0.0 in
02:22 3.8 °F 0.0 °F 1018.5 in NNW 1.6 mph 9.7 mph 76 % 0.0 in
02:32 3.7 °F -0.1 °F 1018.5 in NW 4.8 mph 9.7 mph 76 % 0.0 in
02:42 3.6 °F -0.2 °F 1018.5 in WNW 6.4 mph 8.0 mph 76 % 0.0 in
02:52 3.4 °F -0.4 °F 1018.5 in NNW 4.8 mph 11.3 mph 76 % 0.0 in
02:57 3.4 °F -0.4 °F 1018.5 in North 3.2 mph 8.0 mph 76 % 0.0 in
03:02 3.2 °F -0.4 °F 1018.5 in NNW 1.6 mph 8.0 mph 77 % 0.0 in
03:12 3.2 °F -0.4 °F 1018.5 in WNW 1.6 mph 8.0 mph 77 % 0.0 in
03:17 3.3 °F -0.3 °F 1018.5 in NNW 1.6 mph 8.0 mph 77 % 0.0 in
03:22 3.3 °F -0.3 °F 1018.5 in WNW 1.6 mph 8.0 mph 77 % 0.0 in
03:27 3.2 °F -0.4 °F 1018.5 in North 3.2 mph 8.0 mph 77 % 0.0 in
03:32 3.1 °F -0.5 °F 1018.5 in NNW 3.2 mph 4.8 mph 77 % 0.0 in
03:42 2.9 °F -0.7 °F 1018.5 in NNW 4.8 mph 6.4 mph 77 % 0.0 in
03:47 2.8 °F -0.7 °F 1018.5 in NNW 3.2 mph 9.7 mph 78 % 0.0 in
03:52 2.8 °F -0.7 °F 1018.5 in NNW 1.6 mph 9.7 mph 78 % 0.0 in
03:57 2.8 °F -0.7 °F 1018.5 in NNW 3.2 mph 9.7 mph 78 % 0.0 in
04:02 2.8 °F -0.7 °F 1018.5 in NNW 1.6 mph 6.4 mph 78 % 0.0 in
04:12 2.7 °F -0.8 °F 1018.5 in North 1.6 mph 6.4 mph 78 % 0.0 in
04:17 2.7 °F -0.8 °F 1018.5 in Calm   9.7 mph 78 % 0.0 in
04:22 2.6 °F -0.8 °F 1018.2 in NNW 3.2 mph 9.7 mph 78 % 0.0 in
04:27 2.6 °F -0.8 °F 1018.2 in NNW 3.2 mph 9.7 mph 78 % 0.0 in
04:32 2.6 °F -0.8 °F 1018.2 in NW 3.2 mph 8.0 mph 78 % 0.0 in
04:42 2.3 °F -1.0 °F 1018.2 in NW 4.8 mph 8.0 mph 79 % 0.0 in
04:47 2.2 °F -1.1 °F 1018.5 in Calm   8.0 mph 79 % 0.0 in
04:52 2.2 °F -1.1 °F 1018.2 in North 3.2 mph 8.0 mph 79 % 0.0 in
04:57 2.2 °F -1.1 °F 1018.2 in NNW 3.2 mph 6.4 mph 79 % 0.0 in
05:02 2.2 °F -1.1 °F 1018.2 in NNW 4.8 mph 6.4 mph 79 % 0.0 in
05:12 2.2 °F -1.1 °F 1018.2 in Calm   8.0 mph 79 % 0.0 in
05:17 2.1 °F -1.2 °F 1018.2 in North 3.2 mph 8.0 mph 79 % 0.0 in
05:22 2.1 °F -1.0 °F 1018.2 in Calm   8.0 mph 80 % 0.0 in
05:32 2.1 °F -1.2 °F 1018.2 in NNW 3.2 mph 4.8 mph 79 % 0.0 in
05:42 2.2 °F -1.1 °F 1018.2 in NNW 3.2 mph 6.4 mph 79 % 0.0 in
05:52 2.1 °F -1.2 °F 1017.8 in NNW 4.8 mph 8.0 mph 79 % 0.0 in
06:02 2.1 °F -1.2 °F 1017.8 in NNE 3.2 mph 8.0 mph 79 % 0.0 in
06:12 2.1 °F -1.2 °F 1017.8 in Calm   8.0 mph 79 % 0.0 in
06:17 2.1 °F -1.2 °F 1017.8 in NW 1.6 mph 8.0 mph 79 % 0.0 in
06:22 2.2 °F -1.2 °F 1017.8 in Calm   8.0 mph 78 % 0.0 in
06:32 2.2 °F -1.2 °F 1017.8 in NW 1.6 mph 9.7 mph 78 % 0.0 in
06:37 2.2 °F -1.2 °F 1017.8 in NW 1.6 mph 9.7 mph 78 % 0.0 in
06:42 2.1 °F -1.3 °F 1017.8 in WNW 1.6 mph 9.7 mph 78 % 0.0 in
06:47 1.9 °F -1.4 °F 1018.2 in Calm   9.7 mph 79 % 0.0 in
06:52 1.8 °F -1.5 °F 1018.2 in Calm   9.7 mph 79 % 0.0 in
06:57 1.8 °F -1.5 °F 1018.2 in WNW 1.6 mph 6.4 mph 79 % 0.0 in
07:02 1.8 °F -1.5 °F 1018.2 in Calm   6.4 mph 79 % 0.0 in
07:12 1.7 °F -1.4 °F 1018.2 in Calm   6.4 mph 80 % 0.0 in
07:17 1.6 °F -1.5 °F 1018.5 in Calm   6.4 mph 80 % 0.0 in
07:22 1.6 °F -1.3 °F 1018.5 in Calm   4.8 mph 81 % 0.0 in
07:32 1.4 °F -1.5 °F 1018.5 in Calm   1.6 mph 81 % 0.0 in
07:42 1.4 °F -1.3 °F 1018.5 in Calm   3.2 mph 82 % 0.0 in
07:52 1.7 °F -1.2 °F 1018.8 in Calm     81 % 0.0 in
07:57 1.8 °F -0.9 °F 1018.8 in Calm     82 % 0.0 in
08:02 2.3 °F -0.5 °F 1018.8 in Calm   1.6 mph 82 % 0.0 in
08:12 3.2 °F -0.3 °F 1018.5 in Calm   1.6 mph 78 % 0.0 in
08:17 3.2 °F -0.3 °F 1018.8 in Calm   1.6 mph 78 % 0.0 in
08:22 3.6 °F 0.1 °F 1018.8 in Calm     78 % 0.0 in
08:32 4.9 °F 0.5 °F 1018.8 in Calm     73 % 0.0 in
08:42 5.3 °F 1.0 °F 1018.8 in Calm     74 % 0.0 in
08:47 6.2 °F 1.9 °F 1018.8 in Calm     74 % 0.0 in
08:57 7.8 °F 1.4 °F 1018.8 in Calm     64 % 0.0 in
09:02 7.2 °F 1.1 °F 1018.8 in Calm     65 % 0.0 in
09:12 7.0 °F 0.9 °F 1018.8 in West 1.6 mph 8.0 mph 65 % 0.0 in
09:17 6.9 °F 1.0 °F 1018.8 in WNW 3.2 mph 8.0 mph 66 % 0.0 in
09:22 6.8 °F 0.9 °F 1018.8 in WNW 4.8 mph 8.0 mph 66 % 0.0 in
09:27 6.7 °F 1.2 °F 1018.8 in WNW 6.4 mph 8.0 mph 68 % 0.0 in
09:32 6.7 °F 1.4 °F 1018.8 in NW 1.6 mph 8.0 mph 69 % 0.0 in
09:42 7.0 °F 1.5 °F 1018.8 in Calm   8.0 mph 68 % 0.0 in
09:47 7.1 °F 1.4 °F 1018.8 in NW 3.2 mph 8.0 mph 67 % 0.0 in
09:52 7.1 °F 1.6 °F 1018.8 in West 4.8 mph 4.8 mph 68 % 0.0 in
10:02 6.9 °F 1.2 °F 1018.8 in Calm   6.4 mph 67 % 0.0 in
10:12 7.2 °F 1.5 °F 1018.8 in WNW 3.2 mph 4.8 mph 67 % 0.0 in
10:17 7.3 °F 1.8 °F 1018.8 in Calm   4.8 mph 68 % 0.0 in
10:22 7.3 °F 1.6 °F 1018.8 in SW 3.2 mph 6.4 mph 67 % 0.0 in
10:32 7.4 °F 1.9 °F 1018.8 in WSW 3.2 mph 6.4 mph 68 % 0.0 in
10:37 7.4 °F 1.9 °F 1018.8 in WSW 1.6 mph 6.4 mph 68 % 0.0 in
10:42 7.7 °F 2.2 °F 1018.8 in West 1.6 mph 6.4 mph 68 % 0.0 in
10:47 7.9 °F 1.7 °F 1018.8 in West 4.8 mph 6.4 mph 65 % 0.0 in
10:57 8.2 °F 1.4 °F 1018.8 in West 8.0 mph 12.9 mph 62 % 0.0 in
11:02 8.3 °F 1.9 °F 1018.8 in WSW 1.6 mph 16.1 mph 64 % 0.0 in
11:12 8.4 °F 1.8 °F 1018.8 in West 9.7 mph 16.1 mph 63 % 0.0 in
11:17 8.4 °F 1.1 °F 1018.8 in WSW 14.5 mph 16.1 mph 60 % 0.0 in
11:22 8.4 °F 1.1 °F 1018.8 in SW 8.0 mph 17.7 mph 60 % 0.0 in
11:27 8.5 °F 1.2 °F 1018.8 in West 16.1 mph 17.7 mph 60 % 0.0 in
11:32 8.5 °F 0.9 °F 1018.8 in WNW 6.4 mph 20.9 mph 59 % 0.0 in
11:42 8.6 °F 1.3 °F 1018.8 in WSW 4.8 mph 20.9 mph 60 % 0.0 in
11:47 8.6 °F 1.0 °F 1019.2 in WSW 6.4 mph 20.9 mph 59 % 0.0 in
11:52 8.6 °F 1.0 °F 1019.2 in West 8.0 mph 16.1 mph 59 % 0.0 in
11:57 8.6 °F 0.8 °F 1019.2 in West 4.8 mph 16.1 mph 58 % 0.0 in
12:02 8.6 °F 0.8 °F 1018.8 in WNW 8.0 mph 16.1 mph 58 % 0.0 in
12:12 8.8 °F 1.2 °F 1018.8 in SSE 1.6 mph 12.9 mph 59 % 0.0 in
12:17 8.9 °F 1.1 °F 1018.8 in WSW 9.7 mph 12.9 mph 58 % 0.0 in
12:22 9.1 °F 1.5 °F 1018.8 in SW 1.6 mph 12.9 mph 59 % 0.0 in
12:32 9.3 °F 1.7 °F 1018.8 in WNW 6.4 mph 12.9 mph 59 % 0.0 in
12:42 9.7 °F 2.1 °F 1018.8 in West 11.3 mph 11.3 mph 59 % 0.0 in
12:47 9.7 °F 1.6 °F 1018.8 in West 6.4 mph 9.7 mph 57 % 0.0 in
12:52 9.8 °F 1.7 °F 1018.8 in West 8.0 mph 12.9 mph 57 % 0.0 in
13:02 9.5 °F 1.2 °F 1018.8 in West 4.8 mph 12.9 mph 56 % 0.0 in
13:12 9.4 °F 1.6 °F 1018.8 in West 6.4 mph 11.3 mph 58 % 0.0 in
13:17 9.4 °F 1.1 °F 1018.8 in WSW 3.2 mph 11.3 mph 56 % 0.0 in
13:22 9.6 °F 1.5 °F 1018.8 in West 1.6 mph 11.3 mph 57 % 0.0 in
13:32 9.9 °F 1.8 °F 1018.8 in WSW 6.4 mph 11.3 mph 57 % 0.0 in
13:42 9.9 °F 2.0 °F 1018.8 in NW 4.8 mph 12.9 mph 58 % 0.0 in
13:47 9.9 °F 1.8 °F 1018.8 in WNW 8.0 mph 12.9 mph 57 % 0.0 in
13:57 9.7 °F 1.8 °F 1018.8 in WNW 3.2 mph 12.9 mph 58 % 0.0 in
14:02 9.7 °F 2.1 °F 1018.8 in West 8.0 mph 11.3 mph 59 % 0.0 in
14:12 9.8 °F 2.4 °F 1018.8 in WNW 8.0 mph 12.9 mph 60 % 0.0 in
14:17 9.8 °F 2.4 °F 1018.8 in West 1.6 mph 12.9 mph 60 % 0.0 in
14:22 9.9 °F 2.5 °F 1018.8 in WNW 8.0 mph 14.5 mph 60 % 0.0 in
14:27 10.1 °F 2.7 °F 1018.8 in WNW 1.6 mph 14.5 mph 60 % 0.0 in
14:32 10.3 °F 2.6 °F 1018.8 in NW 1.6 mph 12.9 mph 59 % 0.0 in
14:42 10.2 °F 2.8 °F 1018.8 in West 6.4 mph 12.9 mph 60 % 0.0 in
14:47 10.1 °F 2.4 °F 1018.8 in SSW 3.2 mph 16.1 mph 59 % 0.0 in
14:52 10.2 °F 3.0 °F 1018.8 in Calm   16.1 mph 61 % 0.0 in
14:57 10.3 °F 2.9 °F 1018.8 in NW 4.8 mph 9.7 mph 60 % 0.0 in
15:02 10.2 °F 2.8 °F 1018.8 in WNW 4.8 mph 9.7 mph 60 % 0.0 in
15:12 10.1 °F 2.9 °F 1018.8 in WSW 6.4 mph 9.7 mph 61 % 0.0 in
15:17 10.1 °F 3.1 °F 1018.8 in West 4.8 mph 9.7 mph 62 % 0.0 in
15:22 10.0 °F 3.1 °F 1018.8 in WNW 9.7 mph 11.3 mph 62 % 0.0 in
15:27 10.0 °F 3.5 °F 1018.8 in WNW 3.2 mph 12.9 mph 64 % 0.0 in
15:32 10.3 °F 3.8 °F 1018.8 in WSW 4.8 mph 12.9 mph 64 % 0.0 in
15:42 10.5 °F 3.8 °F 1018.8 in West 8.0 mph 12.9 mph 63 % 0.0 in
15:47 10.8 °F 3.6 °F 1018.5 in WNW 3.2 mph 14.5 mph 61 % 0.0 in
15:52 11.0 °F 3.5 °F 1018.5 in West 9.7 mph 14.5 mph 60 % 0.0 in
15:57 11.0 °F 3.5 °F 1018.5 in West 1.6 mph 16.1 mph 60 % 0.0 in
16:02 11.1 °F 3.6 °F 1018.5 in SW 8.0 mph 16.1 mph 60 % 0.0 in
16:12 11.2 °F 3.7 °F 1018.5 in West 4.8 mph 16.1 mph 60 % 0.0 in
16:22 11.3 °F 4.1 °F 1018.2 in West 8.0 mph 16.1 mph 61 % 0.0 in
16:32 11.4 °F 3.7 °F 1018.2 in West 6.4 mph 14.5 mph 59 % 0.0 in
16:42 11.9 °F 3.6 °F 1018.2 in SW 3.2 mph 12.9 mph 57 % 0.0 in
16:47 12.2 °F 4.2 °F 1018.2 in West 4.8 mph 14.5 mph 58 % 0.0 in
16:52 12.3 °F 4.0 °F 1018.2 in West 3.2 mph 14.5 mph 57 % 0.0 in
16:57 12.1 °F 3.8 °F 1018.2 in SW 3.2 mph 14.5 mph 57 % 0.0 in
17:02 12.0 °F 3.7 °F 1018.2 in SSW 6.4 mph 14.5 mph 57 % 0.0 in
17:07 11.9 °F 3.4 °F 1018.2 in SSW 1.6 mph 14.5 mph 56 % 0.0 in
17:12 11.9 °F 3.6 °F 1018.2 in West 3.2 mph 14.5 mph 57 % 0.0 in
17:17 11.9 °F 3.9 °F 1018.2 in SW 1.6 mph 14.5 mph 58 % 0.0 in
17:22 11.9 °F 4.1 °F 1018.2 in WSW 6.4 mph 14.5 mph 59 % 0.0 in
17:27 11.8 °F 4.3 °F 1018.2 in WSW 1.6 mph 14.5 mph 60 % 0.0 in
17:32 11.6 °F 4.1 °F 1018.2 in SSW 3.2 mph 14.5 mph 60 % 0.0 in
17:37 11.7 °F 4.4 °F 1018.2 in WSW 6.4 mph 14.5 mph 61 % 0.0 in
17:42 11.6 °F 4.3 °F 1018.2 in SW 1.6 mph 14.5 mph 61 % 0.0 in
17:47 11.7 °F 4.0 °F 1018.2 in SSE 8.0 mph 14.5 mph 59 % 0.0 in
17:52 11.6 °F 4.1 °F 1018.2 in SW 6.4 mph 11.3 mph 60 % 0.0 in
17:57 11.5 °F 4.0 °F 1018.2 in SW 3.2 mph 11.3 mph 60 % 0.0 in
18:02 11.4 °F 3.7 °F 1018.2 in SW 3.2 mph 11.3 mph 59 % 0.0 in
18:07 11.4 °F 3.9 °F 1018.2 in SW 1.6 mph 8.0 mph 60 % 0.0 in
18:12 11.4 °F 3.9 °F 1018.2 in SSW 3.2 mph 8.0 mph 60 % 0.0 in
18:17 11.3 °F 4.1 °F 1018.2 in WSW 1.6 mph 6.4 mph 61 % 0.0 in
18:22 11.2 °F 4.0 °F 1018.2 in WSW 3.2 mph 6.4 mph 61 % 0.0 in
18:32 11.1 °F 4.1 °F 1018.2 in South 1.6 mph 6.4 mph 62 % 0.0 in
18:42 11.1 °F 4.3 °F 1018.5 in SSW 6.4 mph 6.4 mph 63 % 0.0 in
18:52 11.1 °F 5.2 °F 1018.5 in West 3.2 mph 8.0 mph 67 % 0.0 in
18:57 11.0 °F 5.1 °F 1018.5 in WNW 1.6 mph 8.0 mph 67 % 0.0 in
19:02 11.0 °F 4.7 °F 1018.5 in WNW 1.6 mph 8.0 mph 65 % 0.0 in
19:12 11.1 °F 5.0 °F 1018.2 in Calm   4.8 mph 66 % 0.0 in
19:17 11.2 °F 5.1 °F 1018.5 in WNW 1.6 mph 3.2 mph 66 % 0.0 in
19:22 11.6 °F 5.2 °F 1018.2 in Calm   3.2 mph 65 % 0.0 in
19:32 12.4 °F 5.3 °F 1018.2 in Calm   4.8 mph 62 % 0.0 in
19:42 12.0 °F 4.5 °F 1018.2 in West 1.6 mph 4.8 mph 60 % 0.0 in
19:52 11.9 °F 4.6 °F 1018.2 in Calm   1.6 mph 61 % 0.0 in
19:57 11.9 °F 4.6 °F 1018.2 in SW 1.6 mph 3.2 mph 61 % 0.0 in
20:02 11.6 °F 4.8 °F 1018.2 in WSW 1.6 mph 1.6 mph 63 % 0.0 in
20:12 11.3 °F 5.0 °F 1018.5 in WSW 6.4 mph 6.4 mph 65 % 0.0 in
20:17 11.1 °F 5.0 °F 1018.5 in WSW 4.8 mph 8.0 mph 66 % 0.0 in
20:27 10.7 °F 5.0 °F 1018.5 in West 1.6 mph 9.7 mph 68 % 0.0 in
20:32 10.6 °F 4.9 °F 1018.5 in WSW 4.8 mph 9.7 mph 68 % 0.0 in
20:42 9.9 °F 4.9 °F 1018.5 in Calm   6.4 mph 71 % 0.0 in
20:47 9.7 °F 4.9 °F 1018.5 in WSW 3.2 mph 6.4 mph 72 % 0.0 in
20:57 9.2 °F 4.8 °F 1018.5 in WSW 1.6 mph 3.2 mph 74 % 0.0 in
21:02 9.1 °F 4.9 °F 1018.5 in Calm   3.2 mph 75 % 0.0 in
21:12 8.6 °F 4.8 °F 1018.8 in Calm   3.2 mph 77 % 0.0 in
21:17 8.2 °F 4.6 °F 1018.8 in West 1.6 mph 1.6 mph 78 % 0.0 in
21:22 7.9 °F 4.5 °F 1018.8 in Calm   1.6 mph 79 % 0.0 in
21:32 7.6 °F 4.5 °F 1018.8 in Calm   1.6 mph 81 % 0.0 in
21:37 7.4 °F 4.2 °F 1018.8 in Calm   1.6 mph 80 % 0.0 in
21:42 7.3 °F 4.4 °F 1018.8 in Calm   1.6 mph 82 % 0.0 in
21:52 7.0 °F 4.1 °F 1018.8 in Calm   1.6 mph 82 % 0.0 in
21:57 6.6 °F 3.7 °F 1019.2 in Calm     82 % 0.0 in
22:02 6.3 °F 4.0 °F 1019.2 in Calm   1.6 mph 85 % 0.0 in
22:12 6.2 °F 4.0 °F 1019.2 in Calm   1.6 mph 86 % 0.0 in
22:17 6.1 °F 3.9 °F 1019.2 in Calm   1.6 mph 86 % 0.0 in
22:22 5.9 °F 3.9 °F 1019.2 in Calm   1.6 mph 87 % 0.0 in
22:27 5.9 °F 3.9 °F 1019.2 in Calm     87 % 0.0 in
22:37 5.7 °F 3.9 °F 1019.2 in Calm   1.6 mph 88 % 0.0 in
22:42 5.6 °F 3.9 °F 1019.2 in Calm   1.6 mph 89 % 0.0 in
22:47 5.5 °F 3.7 °F 1019.5 in Calm   1.6 mph 88 % 0.0 in
22:52 5.4 °F 3.7 °F 1019.5 in Calm   1.6 mph 89 % 0.0 in
22:57 5.4 °F 3.7 °F 1019.2 in Calm     89 % 0.0 in
23:02 5.4 °F 3.7 °F 1019.5 in Calm     89 % 0.0 in
23:12 5.3 °F 3.6 °F 1019.5 in Calm     89 % 0.0 in
23:17 5.2 °F 3.5 °F 1019.5 in Calm     89 % 0.0 in
23:22 5.4 °F 3.9 °F 1019.5 in Calm   1.6 mph 90 % 0.0 in
23:32 5.6 °F 3.9 °F 1019.5 in Calm   1.6 mph 89 % 0.0 in
23:37 5.6 °F 3.9 °F 1019.5 in Calm   1.6 mph 89 % 0.0 in
23:42 5.6 °F 4.1 °F 1019.5 in Calm   1.6 mph 90 % 0.0 in
23:52 5.6 °F 3.9 °F 1019.5 in Calm   1.6 mph 89 % 0.0 in
23:57 5.6 °F 3.9 °F 1019.2 in Calm   1.6 mph 89 % 0.0 in
Meteo18
Compliments of Weather Underground - 4 mb

Script developed by  Jim McMurry - jmcmurry@mwt.net Adapted for the template by  Wim van der Kuil - Leuven-Template.eu

You find our weather info also at:

European Weather Network

Weather Underground

Equipment we use:

Weather-station
Davis Vue

Weather-program
Meteobridge

Weather-server
Raspberry PI 2 B+

Provider
1 and 1

Davis Vue

Meteobridge

Raspberry PI 2 B+

1 and 1